Home > Weather > Krefeld > Past weeks

Flag for Germany Weather for the Past 2 Weeks in Krefeld, North Rhine-Westphalia, Germany

Now
66 °F

Passing clouds.


Feels Like: 66 °F
Forecast: 53 / 73 °F
Wind: 7 mph from Southeast

Location: Monchengladbach Airport

Current Time: May 5, 2016 at 8:33:58 PM

Latest Report: May 5, 2016 at 7:50 PM


Visibility: N/A

Pressure: 30.09 "Hg

Humidity: 46%

Dew Point: 45 °F

Location of KrefeldLocation

Historic Weather in Krefeld — Graph

°F

Krefeld Temperature Yesterday

Maximum temperature yesterday: 59 °F (at 3:50 PM)
Minimum temperature yesterday: 45 °F (at 7:50 AM)
Average temperature yesterday: 55 °F

High & Low Weather Summary for the Past Weeks

 TemperatureHumidityPressure
High68 °F (May 2, 3:50 PM)100% (Apr 30, 7:50 AM)30.42 "Hg (Apr 30, 7:50 AM)
Low37 °F (Apr 24, 7:50 AM)28% (Apr 21, 5:20 PM)29.50 "Hg (Apr 26, 12:20 PM)
Average51 °F63%30.04 "Hg
* Reported Apr 20 7:20 PM — May 5 7:20 PM, Krefeld, Weather by CustomWeather, © 2016

Note: Actual official high and low records may vary slightly from our data, if they occured in-between our weather recording intervals... More about our weather records

Advertising

Krefeld Weather History for the Previous 24 Hours

Scroll right to see more
 ConditionsComfort  
Time TempWeatherWind HumidityBarometerVisibility
7:20 PM
Thu, May 5
66 °FPassing clouds.8 mph43%30.09 "HgN/A
6:50 PM68 °FPassing clouds.8 mph38%30.09 "HgN/A
6:20 PM68 °FClear.10 mph38%30.12 "Hg10 mi
5:50 PM68 °FPassing clouds.10 mph35%30.12 "HgN/A
5:20 PM68 °FPassing clouds.10 mph43%30.12 "HgN/A
4:50 PM68 °FPassing clouds.8 mph40%30.15 "HgN/A
4:20 PM66 °FPassing clouds.10 mph40%30.15 "HgN/A
3:50 PM66 °FPassing clouds.9 mph43%30.18 "HgN/A
3:20 PM66 °FPassing clouds.9 mph40%30.18 "HgN/A
2:50 PM64 °FClear.12 mph43%30.21 "Hg10 mi
2:20 PM64 °FPassing clouds.13 mph43%30.21 "HgN/A
1:50 PM63 °FPassing clouds.9 mph42%30.21 "HgN/A
1:20 PM63 °FPassing clouds.21 mph42%30.24 "HgN/A
12:50 PM61 °FPassing clouds.12 mph42%30.24 "HgN/A
12:20 PM61 °FPassing clouds.12 mph39%30.27 "HgN/A
11:50 AM59 °FPassing clouds.12 mph42%30.27 "HgN/A
11:20 AM59 °FPassing clouds.10 mph42%30.27 "HgN/A
10:50 AM57 °FPassing clouds.10 mph44%30.30 "HgN/A
10:20 AM57 °FPassing clouds.10 mph44%30.30 "HgN/A
9:50 AM54 °FPassing clouds.10 mph51%30.30 "HgN/A
9:20 AM54 °FPassing clouds.7 mph54%30.30 "HgN/A
8:50 AM50 °FSunny.8 mph58%30.30 "Hg10 mi
8:20 AM48 °FPassing clouds.6 mph66%30.33 "HgN/A
7:50 AM46 °FSunny.6 mph71%30.33 "Hg10 mi
8:20 PM
Wed, May 4
57 °FPassing clouds.5 mph36%30.33 "HgN/A
Weather by CustomWeather, © 2016

See weather overviewHow to use our weather pages